STARLINK-33653, 63380

Orbit data source: Space-Track

STARLINK-33653, 63380 is a payload satellite owned by SpaceX/Seattle (US) in LEO that was launched on Wed, 26 Mar 2025 UTC via an FALCON 9 launch vehicle from the Air Force Western Test Range (AFWTR). Payload-class satellites include a variety of spacecraft equipped with specific instruments for various scientific and technological missions. These include communications satellites like Starlink; space stations such as the ISS; scientific satellites like the Hubble; Earth observation satellites from companies like Planet Labs, Umbra, and HawkEye 360; GPS; miniature CubeSats for education and research; and military/defense satellites.

Loading next visibility...
Identifier
63380, 2025-063T
Orbit
LEO
Country
Flag of USUS
Related business
Manufacturer
SpaceX/Seattle
Mission
Operational Commercial Communications
Bus & Motor
STARLINK V2MO, Unknown motor
Mass
575 kg wet, ~530 kg dry
Launch date (UTC)
2025-03-26 (1 year ago)
Launch vehicle
FALCON 9
Launch site
Air Force Western Test Range (AFWTR)
Object type
Payload
Rocket body
Debris
Shape & HBR
Box + 2 Pan, 17.7 m
Radar Cross Section
36.964 m², Large (>1 m²)

Expand to show TLE details & history
Last TLE update: 1 day ago

TLE from 1 day ago
0 STARLINK-33653
1 63380U 25063T   26170.73819423  .00017864  00000-0  61353-3 0  9996
2 63380  53.1606 298.4502 0000983  93.5034 266.6079 15.30214643 70335
Epoch: 2026-06-19T17:42Z
TLE epoch observation values (Epoch: 2026-06-19T17:42:59.981Z)
Latitude
-0.00004°
Longitude
124.73739°
Altitude
476.111 km
Speed
7.629 km/s
True Right ascension
19h 53m 48s
True Declination
0° 00' 00"
Sunlit
Object was in full shadow at epoch
Visualization orbit readout
Latitude
Unknown
Longitude
Unknown
Altitude
Unknown
Speed
Unknown
Apparent Right ascension
Unknown
Apparent Declination
Unknown
Sunlit
N/A
Visualization observer readout
Local Sidereal Time
07:17:19
Azimuth
Unknown
Elevation
Unknown
Doppler factor
Unknown
Orbital elements
Apogee altitude
476.101 km
Perigee altitude
474.754 km
Semi-major axis
6,853.565 km
Eccentricity
0.0001
Inclination
53.1606°
RAAN
298.4502°
Arg. of periapsis
93.5034°
True anomaly
266.59666°
Mean anomaly
266.6079°
Eccentric anomaly
266.60228°
Mean motion
3.82533 °/min
Orbital period
94.11 mins
BSTAR
0.00061353
Loading maneuver chart data...
Computing Atmospheric mass density...
Loading historical data...
Loading historical data...
Loading historical data...
Loading historical data...
Loading historical data...
Loading historical data...
Loading historical data...

Documentation

Showing up to 5 results
|